#timestamp,LO_Frequency,Hit,StdDev 
1530162015.3,286046998.4,N
1530162035.1,286046996.5,N
1530162055.9,286046999.3,N
1530162075.7,286046999.4,N
1530162095.5,286047000.7,N
1530162115.4,286047000.7,N
1530162135.2,286047000.4,N
1530162155.1,286047000.7,N
1530162156.0,286047000.7,N
1530162175.8,286047000.7,N
1530162195.6,286046999.9,N
1530162215.5,286046996.5,N
1530162235.3,286046998.6,N
1530162255.1,286046999.3,N
1530162275.9,286046997.1,N
1530162295.7,286046997.1,N
1530162315.6,286046997.8,N
1530162335.4,286046997.9,N
1530162355.2,286046995.8,N
1530162375.1,286046995.4,N
1530162395.8,286046997.5,N
1530162415.7,286046997.0,N
1530162435.5,286046996.6,N
1530162455.4,286046995.0,N
1530162475.2,286046999.1,N
1530162495.0,286046999.0,N
1530162495.9,286046999.0,N
1530162515.8,286046999.1,N
1530162535.6,286046999.2,N
1530162555.5,286046996.6,N
1530162575.3,286046998.3,N
1530162595.1,286047000.5,N
1530162615.9,286046997.1,N
1530162635.7,286046999.6,N
1530162655.5,286046998.3,N
1530162675.4,286046998.2,N
1530162695.2,286047002.7,N
1530162715.1,286047001.0,N
1530162716.0,286047001.0,N
1530162735.8,286046999.5,N
1530162755.6,286046998.1,N
1530162775.5,286046998.2,N
1530162795.3,286046998.3,N
1530162815.1,286047001.2,N
1530162835.9,286046996.6,N
1530162855.7,286046994.9,N
1530162875.6,286046995.5,N
1530162895.4,286046995.1,N
1530162915.2,286046994.9,N
1530162935.1,286046999.4,N
1530162936.0,286046999.4,N
1530162955.8,286046996.9,N
1530162975.7,286046994.9,N
1530162995.5,286046999.6,N
1530163015.8,286046995.4,N
1530163035.7,286046998.3,N
1530163055.5,286046999.3,N
1530163075.3,286046997.6,N
1530163095.2,286046997.4,N
1530163115.0,286046997.9,N
1530163115.9,286046997.9,N
1530163135.8,286046999.1,N
1530163155.6,286046997.3,N
1530163175.4,286046997.8,N
1530163195.3,286046995.0,N
1530163215.1,286046994.9,N
1530163216.0,286046994.9,N
1530163235.8,286046997.9,N
1530163255.7,286046995.5,N
1530163275.5,286046994.9,N
1530163295.4,286046995.5,N
1530163315.2,286046996.2,N
1530163335.0,286046995.0,N
1530163335.9,286046995.0,N
1530163355.8,286046996.1,N
1530163375.6,286046996.1,N
1530163395.4,286046997.1,N
1530163415.3,286046997.0,N
1530163435.1,286046997.7,N
1530163455.9,286046999.4,N
1530163475.7,286046995.0,Y
1530163495.5,286047000.3,P
1530163515.4,286046999.9,N
1530163535.2,286047001.0,N
1530163555.0,286047000.7,N
1530163555.9,286047000.7,N
1530163575.8,286046998.9,N
1530163595.6,286046996.8,N
1530163615.5,286046997.5,N
1530163635.3,286046996.5,N
1530163655.1,286046999.6,N
1530163675.9,286046999.0,N
1530163695.7,286046999.5,N
1530163715.5,286046999.5,N
1530163735.4,286046996.6,N
1530163755.2,286046999.3,N
1530163775.1,286046998.9,N
1530163776.0,286046998.9,N
1530163795.8,286047001.2,N
1530163815.6,286046999.6,N
1530163835.5,286047000.9,N
1530163855.3,286047000.9,N
1530163875.1,286047000.7,N
1530163895.9,286047002.2,N
1530163915.7,286047000.2,N
1530163935.6,286046999.0,N
1530163955.4,286046999.3,N
1530163975.2,286046998.3,N
1530163995.1,286046999.5,N
1530163996.0,286046999.5,N
1530164015.8,286046999.6,N
1530164035.7,286046995.0,Y
1530164055.5,286046996.5,P
1530164075.3,286046998.8,N
1530164095.2,286046996.9,N
1530164115.0,286046997.2,N
1530164115.9,286046997.2,N
1530164135.7,286046999.4,N
1530164155.6,286046998.5,N
1530164175.4,286046999.6,N
1530164195.3,286046997.1,N
1530164215.1,286046995.0,Y
1530164216.0,286046995.0,P
1530164235.8,286046996.6,N
1530164255.7,286046999.3,N
1530164275.5,286046999.0,N
1530164295.4,286046998.8,N
1530164315.2,286046999.1,N
1530164335.0,286046996.5,N
1530164335.9,286046996.5,N
1530164355.8,286046999.5,N
1530164375.6,286046998.4,N
1530164395.4,286047001.2,N
1530164415.3,286046999.4,N
1530164435.1,286046997.2,N
1530164455.9,286046999.6,N
1530164475.7,286046999.6,N
1530164495.5,286046998.9,N
1530164515.4,286046999.1,N
1530164535.2,286047000.1,N
1530164555.0,286047000.2,N
1530164555.9,286047000.2,N
1530164575.8,286047000.2,N
1530164595.6,286047000.5,N
1530164615.4,286046998.7,N
1530164635.3,286046999.5,N
1530164655.1,286046999.0,N
1530164675.9,286046998.4,N
1530164695.7,286046998.7,N
1530164715.5,286047000.0,N
1530164735.4,286046999.7,N
1530164755.2,286047002.5,N
1530164775.0,286047000.1,N
1530164775.9,286047000.1,N
1530164795.8,286047000.5,N
1530164815.6,286047002.1,N
1530164835.5,286047001.7,N
1530164855.3,286047002.1,N
1530164875.1,286047000.5,N
1530164895.9,286047000.5,N
1530164915.7,286047002.8,N
1530164935.5,286047000.2,N
1530164955.4,286047000.9,N
1530164975.2,286046998.8,N
1530164995.1,286047000.7,N
1530164996.0,286047000.7,N
1530165015.8,286047000.4,N
1530165035.6,286047000.7,N
1530165055.5,286047000.2,N
1530165075.3,286047000.2,N
1530165095.2,286047000.1,N
1530165115.9,286047000.5,N
1530165135.7,286047001.7,N
1530165155.6,286047004.4,Y
1530165175.4,286047001.4,P
1530165195.2,286047002.6,P
1530165215.1,286047002.6,N
1530165216.0,286047002.6,N
1530165235.8,286047000.2,N
1530165255.7,286047001.9,N
1530165275.5,286047001.5,N
1530165295.3,286047002.8,Y
1530165315.2,286046998.1,P
1530165335.7,286046998.4,N
1530165355.6,286047000.6,N
1530165375.5,286046998.8,N
1530165395.3,286046999.0,N
1530165415.1,286046997.2,N
1530165435.9,286046996.5,N
1530165455.7,286047000.8,N
1530165475.6,286047000.5,N
1530165495.4,286046999.9,N
1530165515.3,286047000.4,N
1530165535.2,286046999.3,N
1530165555.9,286046999.0,N
1530165575.7,286046999.0,N
1530165595.6,286046998.9,N
